Wind_Speed
3 6 9 11 12 12 12 13 15 17 17 17 16 15 15 14 13 12 11 10 8 7 7 7 6 5 5 5 5 5 5 5 5 5 6 6 6 6 6 5 6 6 6 7 6 6 5 5 5 4 4 5 6 6 6 7 8 8 9 9 9 9 8 9 9 10 10 8 7 8 8 8 7 7 6 6 7 7 6 5 5 4 4 4 5
2 6 8 10 12 12 12 12 13 15 17 18 17 16 15 14 13 12 11 9 9 9 8 8 8 7 7 6 6 5 5 4 4 4 4 5 5 4 4 4 4 5 5 6 6 5 4 3 3 3 2 2 4 4 5 5 6 7 7 8 8 8 7 8 8 9 9 9 8 8 8 7 6 5 5 4 5 5 5 5 5 5 4 5 5
2 5 7 9 11 12 12 12 12 13 15 17 18 17 16 15 13 12 10 9 10 11 10 10 9 9 8 7 6 5 4 3 3 3 3 3 3 3 2 2 3 4 4 5 4 3 3 3 3 3 1 1 2 3 4 4 5 6 6 7 6 6 6 6 6 7 7 8 7 7 7 6 5 4 4 3 3 4 4 4 4 4 3 4 4
2 3 7 9 11 12 12 12 12 12 13 15 16 17 16 15 13 11 11 11 12 12 12 11 10 9 9 8 7 6 5 4 4 4 4 3 3 3 2 1 1 2 3 4 3 3 3 3 3 3 1 1 2 3 3 2 3 4 5 5 5 4 4 4 4 5 5 5 5 5 6 5 4 3 3 2 2 2 2 3 3 3 3 3 3
2 2 6 9 11 12 13 13 13 12 13 14 15 16 15 14 13 12 12 12 12 12 12 12 11 10 9 8 7 6 6 6 6 6 6 5 5 4 4 3 2 2 3 3 4 4 3 4 3 3 2 1 2 2 2 1 2 1 2 3 3 2 2 2 3 3 4 4 4 4 4 4 4 3 2 1 0 1 0 2 3 3 3 3 3
3 3 5 9 11 12 13 13 13 13 13 13 14 15 15 14 13 13 13 13 13 13 13 12 11 10 10 8 7 6 6 6 6 7 7 7 7 6 5 5 4 2 3 4 4 4 5 4 3 3 3 2 2 2 2 2 3 3 3 1 2 3 2 2 3 3 4 3 3 4 4 3 3 3 2 2 1 1 1 1 1 2 2 2 3
4 4 5 8 11 12 13 14 14 14 14 14 14 15 15 15 15 14 14 13 13 13 13 13 12 11 10 8 7 5 5 6 6 6 6 7 7 8 7 7 5 4 5 6 6 7 7 5 3 2 3 4 4 4 3 3 4 4 4 4 5 5 4 4 5 5 5 5 5 4 3 3 4 4 3 1 0 1 1 1 1 1 1 1 1
5 6 5 6 10 12 13 14 14 14 14 15 15 15 15 15 15 15 14 14 14 14 14 13 12 11 10 8 7 5 5 5 5 5 5 5 5 7 8 8 7 7 7 7 7 9 8 6 4 3 4 5 6 5 5 4 5 5 6 6 7 7 6 5 7 8 8 7 7 7 5 4 5 5 4 4 3 3 2 3 3 2 2 2 2
6 7 6 6 8 12 13 14 15 15 15 15 16 16 16 16 16 15 15 15 15 15 14 14 13 11 10 8 7 6 6 6 5 5 6 4 4 5 8 9 9 9 9 8 9 10 10 9 7 6 5 6 7 6 6 6 6 7 7 8 8 7 6 6 8 8 9 9 10 9 8 7 6 7 7 6 7 6 5 6 6 4 2 2 2
7 8 8 7 7 10 13 14 15 16 16 16 16 16 16 17 17 17 16 16 16 16 15 14 13 12 10 9 8 6 7 8 7 7 7 5 3 3 4 7 9 9 10 10 10 10 10 9 8 7 6 6 7 7 7 7 7 7 7 7 5 4 4 6 7 8 9 10 13 12 10 10 9 9 8 7 8 9 8 8 9 6 4 4 4
8 9 9 8 7 9 12 14 15 16 16 17 17 17 17 17 17 17 17 17 17 17 16 15 14 13 11 10 9 7 8 9 9 9 8 6 4 3 2 4 6 8 9 10 10 9 9 9 8 7 6 6 6 7 7 6 5 5 4 3 2 2 2 3 4 6 8 11 13 14 13 13 11 9 8 6 7 8 9 8 8 6 5 5 4
8 9 10 10 9 9 10 13 15 16 16 17 17 17 17 17 17 17 17 17 17 17 17 16 15 14 13 12 10 9 10 10 11 12 10 9 7 5 5 5 6 8 9 10 10 10 9 9 8 6 6 6 6 6 5 5 3 2 2 1 1 1 1 1 2 4 7 10 12 14 14 14 12 11 9 7 6 5 6 6 6 4 4 4 4
8 9 10 11 10 10 10 12 14 16 16 17 17 17 17 17 17 17 17 17 17 17 17 17 16 15 14 13 11 10 12 12 13 13 12 11 10 8 8 7 8 9 11 11 12 13 11 10 8 6 6 6 5 5 4 3 2 2 2 2 2 1 1 1 2 3 5 6 9 12 13 14 13 12 10 9 8 5 5 5 5 4 5 5 5
6 9 10 11 11 11 11 11 13 15 16 17 17 17 17 17 17 16 17 17 17 17 17 17 17 16 15 14 12 12 14 15 15 14 13 13 11 10 9 9 10 11 13 13 13 13 12 10 7 6 6 5 5 4 3 3 3 2 2 2 2 2 2 2 2 4 4 4 6 8 11 12 13 13 13 13 11 9 7 6 7 6 6 6 7
5 7 9 10 11 12 12 12 13 15 16 17 17 17 18 17 17 17 16 16 17 17 17 17 17 16 16 15 14 14 16 16 17 15 14 13 12 11 10 10 11 12 14 14 13 12 11 9 7 6 6 6 6 5 5 4 3 2 2 2 2 2 2 2 3 5 4 3 4 6 8 10 12 13 13 13 11 9 8 7 8 9 8 9 10
6 7 8 10 11 13 13 13 14 15 16 17 18 18 18 18 17 17 17 16 16 16 17 17 17 17 16 16 16 16 17 18 18 16 15 14 12 11 11 11 12 12 13 13 14 12 10 9 7 7 7 7 7 7 6 4 4 3 3 2 2 3 2 3 5 5 4 3 4 5 7 9 10 12 13 13 11 9 7 7 8 9 9 10 11
9 8 8 9 11 13 14 15 15 15 16 17 18 19 19 19 18 18 17 16 15 15 15 16 17 17 17 16 17 18 19 19 19 17 15 14 12 11 11 12 12 11 11 12 13 10 9 9 8 8 9 9 8 7 6 5 5 4 4 4 3 3 4 5 6 6 5 4 4 6 8 9 10 11 12 12 12 9 7 7 7 8 8 9 9
10 11 10 10 11 12 14 15 17 17 18 18 18 19 20 20 20 19 18 17 16 16 15 15 16 16 17 17 18 20 20 19 19 19 18 15 14 12 11 11 10 10 9 10 10 9 9 9 9 10 11 10 9 8 7 7 6 5 4 4 4 5 5 6 7 6 6 6 6 7 7 9 9 10 11 11 11 9 7 7 7 7 8 8 8
12 13 13 12 12 12 14 15 17 18 19 19 20 20 21 21 21 21 20 19 18 17 17 16 16 16 17 18 19 21 21 20 20 20 20 17 15 14 12 11 10 9 9 8 8 9 10 10 10 11 11 10 9 8 8 7 6 5 4 4 5 6 6 7 7 6 6 7 7 7 8 8 9 10 10 10 10 10 9 8 8 8 8 8 7
14 15 15 15 14 14 15 16 17 18 19 20 20 21 21 22 22 23 22 20 20 19 18 18 17 17 17 18 19 21 22 22 21 21 21 19 17 14 12 11 10 10 10 9 9 9 10 11 12 12 12 10 10 9 8 7 6 5 5 5 6 6 7 7 7 6 6 7 8 8 8 9 9 10 10 10 11 11 11 10 9 9 9 9 8
15 15 16 16 17 16 16 16 17 18 19 20 20 21 22 23 23 24 24 23 22 21 20 19 19 18 18 19 20 21 22 23 23 22 21 19 17 14 12 11 11 12 11 10 10 10 11 12 13 13 12 11 10 9 9 7 6 5 5 6 6 7 7 7 7 7 7 8 8 8 8 9 9 10 10 10 11 11 11 11 10 10 10 10 9
16 16 16 17 18 18 18 17 18 18 19 20 21 21 22 23 24 24 25 25 24 23 22 21 21 20 20 21 21 22 23 23 23 21 20 18 16 14 12 12 13 13 12 11 11 11 12 13 13 13 12 11 11 10 9 8 7 6 6 6 7 7 7 7 7 8 9 9 9 9 9 9 9 9 9 9 10 10 10 11 11 10 10 10 9
17 15 14 15 17 18 19 19 18 18 19 21 21 22 22 23 24 25 25 26 26 25 24 24 23 23 22 22 23 24 24 24 23 22 20 19 17 15 13 13 14 15 14 13 12 12 13 14 14 14 13 12 11 11 10 9 7 7 7 7 7 7 7 8 8 8 9 9 10 10 10 10 10 10 10 9 9 10 10 10 10 10 10 10 9
17 15 14 14 15 16 17 19 18 18 20 21 22 22 22 23 24 25 26 26 27 27 26 26 25 25 24 24 24 26 26 26 24 23 22 20 19 17 15 14 16 16 16 14 13 14 14 15 15 15 14 13 12 12 11 9 8 7 7 7 7 7 7 7 8 8 9 10 10 10 11 11 11 11 11 10 9 9 9 9 9 10 10 9 8
18 17 16 15 15 14 15 17 19 20 20 21 22 23 22 23 24 25 26 27 27 28 28 28 28 27 26 26 26 26 27 27 26 25 24 23 21 19 17 16 17 18 17 16 15 15 15 16 16 16 15 14 14 13 12 10 9 8 9 8 8 7 7 7 7 8 9 9 10 10 11 11 11 11 12 11 11 10 10 10 10 9 9 9 8
19 18 17 15 15 14 14 15 17 20 21 21 22 23 24 24 24 25 26 27 27 28 28 29 30 29 28 27 27 27 28 28 28 27 26 24 23 21 18 17 18 19 19 17 16 15 16 17 16 17 16 15 15 14 13 11 10 10 10 9 8 7 7 6 7 8 8 9 10 10 10 11 11 11 12 12 11 11 10 9 9 8 8 7 6
19 18 18 17 17 16 15 15 16 18 20 21 22 23 25 25 25 25 26 26 27 27 28 28 30 30 30 29 29 29 29 30 29 29 27 25 24 22 20 18 18 20 20 19 17 16 17 17 17 18 17 16 16 15 14 12 11 11 11 10 9 8 7 7 7 7 8 9 9 10 10 11 11 11 12 11 11 11 10 8 7 7 6 5 4
19 19 19 20 20 19 18 18 17 17 18 19 22 23 24 25 25 26 26 26 27 27 27 26 27 29 31 31 30 30 30 31 31 29 28 27 25 24 23 20 19 20 21 21 19 18 18 18 19 20 19 18 17 16 15 14 13 13 12 11 10 9 8 8 7 7 8 9 9 9 10 10 11 11 12 12 12 11 10 8 5 5 4 3 3
18 18 19 19 20 20 20 20 20 18 18 18 21 22 24 25 26 27 27 26 27 27 27 26 25 27 30 32 32 31 32 32 32 30 29 28 27 26 25 23 21 21 23 22 21 19 19 19 20 21 20 20 18 17 17 16 15 14 13 12 11 10 9 9 8 7 8 9 9 9 10 10 11 11 12 12 12 10 9 7 5 5 4 4 3
16 16 17 18 18 19 20 21 21 19 18 18 19 21 23 25 26 27 27 27 27 27 27 27 26 25 27 29 31 32 33 33 33 32 31 30 29 28 27 26 23 23 24 24 22 21 20 21 22 22 22 21 19 18 18 18 16 15 15 14 13 12 11 10 9 8 8 9 9 9 9 10 11 11 12 12 12 11 10 8 7 7 6 5 3
13 13 14 15 16 17 18 19 19 19 18 18 18 18 21 23 25 27 27 28 28 27 27 27 27 26 25 26 28 29 30 32 33 33 32 31 30 29 28 28 26 24 24 24 24 23 22 22 23 23 23 22 20 20 20 20 18 17 16 16 15 14 13 12 11 10 9 10 10 10 10 10 10 11 12 12 12 12 11 10 8 8 8 6 4
12 13 12 11 12 13 15 16 17 17 17 17 17 17 18 20 23 26 27 28 28 28 28 28 28 27 26 26 26 26 27 29 31 32 31 31 31 30 28 28 27 25 25 25 25 25 24 23 24 24 24 23 22 22 22 22 21 19 18 18 17 16 15 14 13 11 11 11 11 10 10 10 10 11 12 12 12 12 12 11 9 9 10 9 6
10 11 11 10 8 9 11 12 13 14 15 15 15 15 16 18 20 23 25 27 28 28 28 29 28 27 26 26 26 26 26 27 28 30 30 30 31 30 28 27 27 27 25 25 26 26 26 25 25 25 26 26 25 24 25 24 23 22 20 20 19 18 17 16 15 13 12 12 11 11 11 10 11 11 12 12 12 13 12 12 10 11 12 12 11
8 9 9 10 10 9 8 11 12 12 12 12 13 13 14 16 18 21 23 25 26 27 28 28 28 27 27 27 27 27 26 27 28 29 30 30 31 31 29 28 28 28 26 25 26 27 27 27 27 26 27 28 28 27 27 26 25 24 23 22 21 20 19 18 17 15 14 13 12 12 12 11 11 11 12 12 13 13 13 13 13 14 14 14 15
12 12 11 11 13 11 7 8 10 9 10 10 11 11 12 13 15 18 21 23 24 25 25 26 27 28 28 28 28 27 27 27 28 30 31 31 32 32 31 29 29 29 27 26 27 27 28 28 28 27 28 29 29 28 28 27 26 26 25 24 23 22 21 20 18 17 16 15 14 14 13 11 11 12 12 12 13 13 14 14 15 15 13 14 17
15 14 12 11 11 10 7 5 6 7 8 8 10 10 11 13 14 16 18 21 22 23 23 23 24 26 27 28 28 27 27 27 28 30 31 32 33 33 32 31 30 29 28 27 28 28 28 28 28 28 28 30 31 30 29 29 28 27 26 26 25 24 24 23 20 19 18 17 17 15 14 12 12 13 12 12 13 13 14 15 15 15 14 15 17
15 13 11 10 10 10 9 7 7 7 8 8 8 10 11 13 14 14 15 17 19 20 21 21 22 23 25 26 26 27 27 28 29 30 31 32 33 33 33 32 31 29 29 29 29 29 29 29 29 29 29 30 31 31 31 30 29 28 28 27 27 26 26 24 22 21 20 20 19 17 15 14 13 13 13 12 13 13 15 15 15 16 15 16 17
9 9 8 8 9 9 10 9 9 9 9 9 9 10 12 13 13 13 14 14 16 17 18 18 20 21 22 23 25 26 27 28 28 29 30 32 33 33 33 32 31 31 31 32 31 31 31 31 31 30 29 30 31 32 31 30 30 30 29 29 28 28 27 26 24 23 22 22 20 18 17 16 14 14 13 13 14 14 15 16 16 16 16 18 19
3 3 4 6 8 8 9 9 9 8 8 8 9 9 11 12 13 13 13 13 14 16 17 17 18 19 20 22 23 24 25 26 26 27 28 30 32 33 33 33 33 33 33 33 33 33 33 33 32 32 30 30 31 32 31 30 31 31 30 30 30 30 29 27 27 26 25 23 22 21 18 17 16 16 15 14 15 15 16 16 16 16 17 18 19
2 3 3 5 6 6 7 7 6 7 7 8 8 9 9 10 11 12 12 13 13 14 15 16 17 18 19 20 21 22 23 23 24 25 26 28 30 31 32 33 34 34 34 35 35 35 34 34 33 33 32 31 31 32 32 31 32 32 31 31 31 31 30 30 29 28 26 26 25 23 20 19 19 19 17 16 16 16 17 17 17 17 17 18 18
6 6 5 5 4 4 4 4 6 6 7 8 7 7 7 7 8 9 9 10 11 12 13 14 16 17 18 19 20 21 22 22 22 24 26 27 28 29 30 32 33 35 35 35 35 35 35 34 33 33 32 32 32 33 33 33 33 33 33 32 33 32 32 32 31 30 29 29 28 24 22 22 22 21 19 18 17 17 17 17 18 18 18 18 18
14 12 11 9 6 4 4 4 5 4 5 5 5 6 5 5 4 4 3 4 5 6 7 10 13 15 17 18 19 20 21 21 21 22 23 24 25 26 27 29 31 33 34 35 35 35 35 34 34 34 33 33 33 33 35 36 36 36 35 33 33 33 34 34 33 32 33 32 30 27 26 26 25 23 21 19 18 18 18 18 19 18 19 19 18
23 21 20 17 14 13 12 11 8 7 7 6 5 5 5 4 3 3 2 1 1 1 2 4 6 8 11 14 16 17 18 19 19 20 21 20 21 22 24 26 28 31 32 34 35 35 35 35 35 35 34 34 33 34 36 37 37 36 34 32 32 31 32 34 36 36 36 34 32 31 29 29 27 26 24 22 20 20 19 19 19 19 19 19 18
30 30 29 28 26 24 21 20 18 16 15 13 11 9 6 4 2 2 1 1 1 2 2 2 3 4 7 10 13 15 16 17 17 17 18 17 18 20 22 24 26 28 30 32 33 34 35 36 36 36 36 35 35 36 37 37 39 37 34 31 28 25 28 33 36 36 36 35 35 34 32 31 30 28 27 24 22 21 21 21 20 19 20 20 19
34 33 33 32 31 29 27 25 25 24 23 22 20 17 14 10 7 4 2 1 1 2 2 1 1 1 3 5 8 10 11 11 11 12 12 13 15 18 21 23 25 27 29 30 31 32 33 34 35 36 37 37 37 37 37 38 40 40 39 33 26 24 29 32 31 30 33 34 34 34 33 32 31 30 29 26 24 23 23 22 21 20 20 20 20
34 33 32 32 31 29 28 26 26 26 26 26 24 22 21 18 15 11 9 8 8 9 8 6 6 5 4 2 2 3 4 5 6 7 8 10 12 15 18 20 22 24 26 28 30 30 31 32 33 35 36 36 36 38 39 39 40 41 42 41 36 32 31 29 27 26 27 30 31 32 32 32 31 31 30 28 27 26 25 23 22 21 21 21 20
31 30 29 29 28 27 26 25 25 25 25 24 23 22 22 21 18 16 14 12 11 11 10 8 7 7 7 5 5 4 3 4 3 4 5 7 9 11 14 17 19 22 24 26 28 29 29 30 31 33 34 35 36 38 40 39 41 42 42 43 44 41 35 31 29 26 23 26 29 30 30 30 30 30 28 28 27 27 26 24 23 23 23 22 21
27 27 27 27 26 26 25 24 24 24 24 23 22 21 21 20 18 17 15 13 12 11 10 9 8 7 7 6 6 6 5 4 4 4 4 4 6 8 10 13 16 19 21 24 25 26 27 28 29 31 33 34 36 38 39 39 41 43 43 43 43 44 42 39 37 32 28 27 28 29 29 29 29 29 27 26 27 27 26 25 25 24 24 23 22
25 26 26 25 25 24 23 22 22 23 23 22 21 21 20 19 18 16 15 14 13 12 10 9 9 8 8 8 8 8 7 6 6 6 6 6 5 6 7 9 12 15 18 20 23 24 26 27 28 30 31 33 34 36 38 39 41 42 42 43 43 43 44 43 41 37 34 32 30 31 31 30 31 31 28 27 27 27 27 26 26 25 25 25 23
24 24 23 23 22 22 21 20 21 22 22 21 20 20 19 18 17 16 14 14 13 12 11 10 10 9 9 9 8 8 8 8 7 7 7 7 7 6 6 7 8 10 13 16 19 22 24 26 28 29 30 32 33 34 37 38 39 41 41 43 44 44 44 44 43 40 38 36 35 34 34 33 34 33 31 30 29 29 28 27 27 27 27 26 25
21 20 21 21 20 20 19 19 20 20 20 19 19 19 18 18 17 15 14 13 13 12 11 11 11 11 10 11 10 9 8 8 8 8 8 8 8 7 7 7 7 8 10 13 15 18 20 23 25 28 29 31 32 33 35 37 38 39 41 43 44 45 45 45 44 42 42 41 39 38 37 36 37 36 33 32 30 29 29 28 28 27 27 27 26
Wind_Direction
163 168 180 181 190 194 199 206 207 206 203 202 197 197 198 201 203 204 207 207 201 184 176 174 175 165 155 149 143 135 129 130 134 144 147 149 147 140 126 112 97 88 86 87 83 79 73 78 90 100 85 58 63 73 84 94 96 98 98 96 96 94 94 94 95 101 107 113 106 97 99 98 98 98 100 96 85 78 76 76 73 75 80 91 96
101 167 183 183 191 193 197 203 209 210 208 208 205 204 204 205 206 207 206 200 191 182 180 176 173 167 162 157 153 145 138 138 142 150 154 158 160 153 132 113 95 91 92 88 85 88 102 110 122 129 103 58 69 78 86 91 94 93 94 93 93 94 95 97 101 107 116 127 122 105 96 92 91 91 92 90 88 85 78 73 71 72 73 75 77
52 162 185 188 192 194 197 200 206 209 210 211 211 211 209 211 211 210 203 191 185 183 184 178 174 173 171 166 162 156 152 157 163 171 174 180 181 177 151 122 92 92 92 82 87 111 130 142 165 153 125 98 91 94 97 95 99 92 88 88 83 90 94 99 107 113 120 126 125 111 100 92 84 85 83 67 74 81 82 78 73 74 69 63 62
12 169 191 195 194 195 198 200 205 208 208 211 214 216 215 215 213 208 199 190 185 184 185 179 178 178 178 175 172 168 169 178 186 199 203 211 214 212 210 184 109 98 97 91 115 145 160 176 193 184 178 164 130 121 114 112 112 98 90 80 71 81 87 101 116 125 134 141 139 122 111 99 85 83 77 57 51 56 80 85 80 80 72 58 51
300 221 201 202 199 197 199 201 205 208 207 209 213 217 218 218 214 207 198 192 188 187 185 182 182 183 185 184 182 183 186 193 199 210 214 216 221 224 230 220 188 140 118 130 154 163 194 205 214 219 220 214 166 156 157 178 179 150 104 67 51 47 66 124 141 153 168 180 168 146 134 120 108 100 81 72 22 303 143 110 99 91 78 70 62
253 241 214 211 206 202 201 202 206 208 207 208 212 216 218 219 218 211 202 196 193 190 188 187 188 190 195 194 193 198 203 209 214 219 221 220 220 222 225 222 208 172 155 168 174 184 208 209 217 230 219 227 224 205 208 222 227 232 239 286 339 336 304 194 188 194 201 218 202 174 166 158 150 137 108 80 55 298 269 211 155 116 93 75 64
239 240 227 219 214 209 205 205 208 208 208 208 212 218 221 222 221 217 210 204 200 197 195 194 195 197 203 205 205 213 222 224 231 234 230 222 219 221 221 220 207 179 175 182 194 206 212 212 218 226 225 238 244 239 238 242 242 242 248 266 293 304 286 236 213 208 209 224 237 229 209 189 182 170 159 152 103 287 289 276 232 195 164 146 108
226 237 237 230 221 216 211 209 211 210 211 211 213 217 222 225 224 222 217 213 210 206 204 204 205 207 208 210 214 223 227 226 235 241 232 217 218 224 221 222 207 187 187 189 201 214 223 232 245 248 248 257 259 258 260 261 264 265 267 277 288 290 275 246 225 216 211 212 231 245 243 223 202 194 191 194 205 221 247 276 268 252 220 195 200
222 233 240 241 226 221 219 215 215 214 213 215 217 218 220 224 226 227 225 224 219 216 214 214 216 216 214 214 218 219 216 218 227 234 225 214 220 217 211 214 204 194 196 199 210 224 235 242 257 266 261 270 270 267 269 270 275 278 283 288 291 285 265 246 233 224 217 208 217 232 241 238 220 210 211 211 222 235 247 266 273 270 244 233 259
219 227 238 245 236 226 222 221 220 219 218 218 220 221 221 223 227 229 230 230 227 225 223 222 222 220 216 215 219 213 209 212 225 239 225 211 217 197 192 200 196 196 201 212 227 237 245 250 262 273 271 268 268 267 269 272 278 284 291 294 293 283 260 242 235 228 221 211 216 225 231 237 232 216 216 226 233 241 249 265 277 278 282 290 289
219 221 232 242 245 235 225 225 226 225 225 223 223 224 224 225 227 230 232 232 231 230 227 226 224 220 216 216 215 209 211 211 222 238 231 227 234 224 221 209 204 209 214 225 239 249 257 266 276 283 281 272 266 265 266 270 277 284 290 294 294 283 258 237 231 223 218 212 218 226 229 237 241 227 223 238 245 249 255 266 274 275 285 294 280
230 221 225 235 243 245 234 228 229 230 231 230 229 228 228 228 228 229 232 233 233 232 230 229 226 222 219 218 214 208 215 216 220 230 233 241 250 248 243 238 235 233 236 243 252 263 269 278 287 288 284 279 268 262 260 260 259 258 254 259 261 262 250 215 210 207 214 213 218 227 232 237 242 240 234 242 255 257 260 262 260 250 249 256 260
245 230 224 227 234 244 245 236 233 233 235 235 235 234 233 232 231 230 230 231 232 232 231 231 229 224 222 222 217 212 216 217 221 227 231 241 253 259 256 252 252 250 250 251 254 261 268 275 280 277 275 272 260 252 243 226 201 197 207 223 233 237 234 227 213 212 220 218 221 228 235 239 243 245 242 249 258 258 252 240 228 214 217 234 248
256 246 234 228 230 238 246 245 240 238 238 238 238 238 238 237 235 232 230 228 229 231 230 231 231 229 227 226 219 212 215 218 224 229 233 240 250 260 266 267 264 264 260 255 254 255 259 262 260 256 256 251 237 222 200 181 177 194 216 232 239 238 238 239 234 236 236 228 227 229 235 241 244 247 249 255 260 264 261 237 222 215 212 223 235
268 259 248 238 232 233 240 245 246 244 243 240 239 240 241 240 239 237 233 230 229 229 229 229 231 232 230 227 218 212 214 222 229 231 233 239 250 262 271 274 269 267 263 257 255 252 252 249 238 238 233 219 205 190 175 171 182 199 224 243 256 260 261 253 245 247 245 239 234 228 231 238 243 247 252 258 263 268 267 247 236 232 226 229 240
275 266 257 249 240 237 237 240 244 247 248 245 242 241 241 242 241 241 239 235 232 229 228 228 230 232 232 226 218 213 215 224 234 233 234 242 252 264 272 271 263 258 259 256 254 251 247 237 225 224 214 199 188 180 177 180 188 197 212 229 251 269 278 268 260 261 258 245 231 226 228 233 239 244 250 260 267 271 266 257 248 244 240 240 248
279 271 262 255 247 243 238 238 240 244 248 248 246 243 242 243 242 242 242 240 237 232 229 228 229 231 231 226 217 213 216 224 235 237 238 247 257 265 270 266 255 247 250 251 251 247 236 226 217 211 198 188 183 181 184 187 192 200 212 225 241 256 263 264 267 274 276 260 235 229 228 231 237 241 247 255 263 265 262 259 254 253 253 252 257
278 275 268 259 252 247 242 239 238 240 243 246 247 245 244 244 242 241 241 242 240 239 235 231 231 231 230 226 216 213 217 223 232 239 244 251 261 269 270 263 250 240 240 242 243 235 222 217 208 200 191 185 184 184 187 190 195 206 219 233 244 252 255 259 266 272 277 271 254 245 240 239 240 242 246 251 259 263 259 255 254 256 256 259 263
275 274 272 264 256 250 245 242 239 238 239 241 244 246 247 246 244 241 240 240 240 241 241 238 235 234 232 227 217 214 219 224 228 237 246 254 261 269 271 260 245 237 232 231 232 221 213 209 201 195 191 186 185 186 189 195 203 215 231 246 255 259 262 265 269 273 273 268 263 260 255 253 251 252 254 255 261 264 263 260 258 258 257 259 262
276 272 271 267 260 253 248 245 243 241 241 241 242 244 246 248 246 243 240 239 238 239 241 241 239 238 235 229 219 216 220 225 229 236 245 254 260 264 266 258 246 238 229 225 222 214 211 205 197 195 193 189 187 190 195 202 213 228 245 255 261 263 267 270 275 278 273 269 267 265 262 261 260 259 261 262 264 267 268 268 265 263 262 262 261
283 272 267 265 262 257 251 248 247 245 244 243 243 243 244 246 247 245 242 239 237 237 238 239 239 238 237 231 223 219 219 224 231 237 245 252 256 258 259 255 246 238 231 226 223 216 211 203 197 198 197 194 192 195 201 210 221 237 250 256 261 263 267 271 276 277 274 274 273 271 268 266 264 263 264 265 266 268 269 269 268 266 265 265 263
289 277 266 260 260 260 257 252 250 249 248 246 245 245 244 244 244 244 244 241 239 236 236 236 236 237 236 234 227 221 222 227 234 241 248 253 256 257 255 250 241 237 232 228 227 221 214 206 202 202 202 198 197 202 209 217 228 238 247 253 257 261 266 269 272 275 275 277 277 278 278 276 275 273 272 272 272 271 270 269 268 268 267 266 267
294 286 277 267 262 261 260 257 253 251 252 250 248 247 246 244 243 242 243 243 242 240 237 235 235 235 235 235 230 225 227 233 238 245 251 255 257 258 257 248 238 235 232 227 228 226 220 212 208 209 208 204 202 208 214 222 231 236 241 246 251 256 261 265 267 270 272 275 278 280 282 284 285 284 283 282 281 279 277 275 273 271 270 269 267
300 294 289 281 272 264 263 262 259 254 253 253 252 250 248 246 244 241 242 243 244 244 241 238 236 235 234 234 232 230 232 236 241 246 250 253 255 256 254 247 237 234 231 227 226 228 224 217 214 215 215 209 208 213 218 225 231 233 236 238 242 247 250 257 262 265 267 269 273 275 279 282 286 288 288 289 289 289 287 284 280 275 274 272 268
302 297 291 287 283 278 271 267 263 257 253 252 253 253 252 249 246 243 242 241 242 243 243 241 239 236 234 233 232 232 234 238 241 245 247 250 252 253 252 246 239 236 233 228 226 229 227 222 219 220 219 213 212 216 220 225 230 230 234 233 234 239 242 248 255 260 262 264 267 269 273 276 280 284 287 290 293 293 292 290 287 283 279 275 271
300 298 297 295 291 289 286 278 270 263 257 254 254 255 255 253 250 247 245 243 242 242 242 241 240 239 236 233 231 232 235 237 240 244 246 249 251 252 251 246 241 238 236 233 230 231 231 228 223 223 222 217 215 217 221 226 229 230 232 232 233 236 239 243 248 255 260 262 264 265 267 269 273 277 281 286 290 292 293 293 290 286 283 278 274
295 296 299 299 295 294 294 288 281 275 267 260 256 254 255 255 254 252 250 248 246 244 243 242 241 240 238 236 233 233 235 238 240 243 245 247 249 251 250 246 242 240 239 236 234 234 233 229 225 226 226 221 219 219 223 227 229 231 232 232 232 235 240 243 245 250 256 260 261 263 264 265 268 270 275 279 282 286 288 288 284 279 277 274 269
292 296 300 298 295 295 294 289 285 284 278 268 260 256 256 256 256 253 252 251 250 248 247 245 244 242 240 238 236 236 238 241 242 244 245 247 248 250 250 247 243 241 241 238 236 236 235 229 226 230 230 226 224 222 224 228 229 232 233 233 234 236 241 244 248 248 254 259 260 262 262 263 265 266 269 270 273 276 277 278 273 271 263 248 253
295 300 300 297 295 294 290 287 286 286 284 275 265 260 257 257 257 255 255 255 254 254 253 250 248 246 244 241 239 238 240 243 245 246 248 249 249 250 251 249 245 242 241 240 238 238 238 233 228 232 233 231 229 226 226 229 231 234 235 236 236 238 241 245 248 245 248 256 259 260 260 261 260 262 263 264 266 264 265 264 245 241 219 217 236
296 299 298 296 294 291 287 287 288 288 285 279 271 265 260 258 258 258 258 258 258 258 257 255 253 251 248 246 243 242 243 245 247 249 251 252 251 251 251 251 247 243 242 242 241 240 240 237 232 233 236 234 232 230 230 232 233 235 236 238 238 238 241 243 246 244 243 249 255 256 258 260 260 262 263 263 265 261 258 252 235 227 208 230 253
275 279 286 292 291 287 286 288 287 287 286 282 277 270 263 260 260 260 259 258 259 259 258 257 256 254 252 250 248 246 246 248 249 251 252 253 253 252 252 252 248 244 244 245 243 241 240 240 236 235 239 238 234 232 234 235 235 236 238 238 239 239 240 242 245 245 242 244 249 252 254 258 260 262 264 265 268 266 263 257 243 226 203 217 229
259 257 262 272 282 287 287 288 287 284 284 283 279 273 268 264 261 259 258 259 259 258 259 259 258 257 255 253 253 251 250 250 250 251 252 253 254 254 254 255 251 243 243 245 245 242 241 241 238 235 237 237 234 233 236 237 237 237 238 239 240 240 241 242 244 245 243 245 248 251 253 257 260 262 264 266 267 267 264 261 250 229 204 196 209
258 256 255 257 268 289 289 287 286 281 280 281 279 275 271 266 262 259 258 257 257 257 258 259 260 259 258 257 256 256 255 255 254 253 253 253 255 255 255 257 255 246 243 245 246 245 242 241 240 235 235 235 233 233 235 237 237 237 237 239 241 241 242 243 245 247 246 249 251 254 256 257 260 261 263 264 263 262 257 254 242 228 217 199 202
264 265 266 266 268 276 285 284 280 277 278 277 276 273 269 266 262 260 258 256 255 255 255 256 257 257 258 258 258 258 258 258 257 255 254 254 255 256 256 259 259 251 245 246 248 248 246 244 242 238 236 236 236 235 237 238 238 238 238 239 241 242 243 245 246 249 250 252 253 255 258 259 261 261 262 262 260 259 255 250 240 233 233 216 202
269 273 272 271 266 258 258 274 277 275 276 274 272 272 270 265 261 259 257 256 255 254 253 253 253 255 256 257 258 259 259 259 259 258 257 256 256 257 258 262 262 255 251 250 250 251 249 246 244 241 237 237 238 237 238 240 240 240 241 241 243 243 245 247 247 248 251 253 254 255 257 258 260 261 261 262 260 259 255 250 245 239 235 226 211
274 278 274 265 256 244 234 247 259 263 266 265 265 264 263 259 256 256 255 254 254 254 254 253 252 252 253 255 256 258 258 258 259 259 258 257 258 259 261 264 262 258 257 257 254 253 252 249 247 243 240 239 240 240 240 240 241 241 241 242 244 245 247 248 247 248 251 253 255 255 256 255 257 262 264 265 263 260 258 251 247 240 229 225 222
279 281 275 260 247 238 234 230 223 231 237 236 246 251 252 251 248 248 248 249 251 252 253 253 252 251 251 253 254 255 256 257 258 259 259 258 259 260 262 264 262 261 263 262 258 256 254 252 250 246 243 240 241 242 243 243 242 242 242 243 244 246 247 249 248 249 251 253 255 256 256 255 257 264 267 267 265 262 259 254 248 242 230 224 227
283 281 272 254 240 233 234 229 217 221 223 213 216 228 237 242 242 241 242 243 244 246 249 250 251 251 252 252 252 254 254 255 257 259 260 259 260 261 263 264 262 263 264 263 260 258 255 254 252 250 246 243 241 243 244 245 245 244 244 244 245 246 247 249 250 251 252 253 256 256 257 258 261 265 267 266 265 264 261 256 251 246 236 227 228
271 250 237 229 225 222 226 226 215 213 211 198 195 207 221 231 235 236 236 236 236 238 242 244 249 251 253 253 252 252 252 255 257 259 260 260 261 262 263 263 263 263 263 261 259 257 256 255 254 253 250 246 244 243 243 243 245 245 244 244 245 246 247 249 250 251 252 254 256 257 257 261 264 264 265 265 265 266 263 259 253 248 241 234 232
123 141 163 189 198 197 205 201 180 171 171 168 175 189 201 214 225 230 232 235 235 236 239 241 246 249 250 252 252 252 252 253 256 258 259 260 262 263 264 264 264 262 261 260 259 260 260 259 258 256 252 248 245 242 239 239 241 243 243 244 245 246 247 248 249 250 252 254 255 256 257 259 262 263 263 263 264 266 264 260 254 249 244 238 235
105 112 124 134 147 159 170 157 138 137 142 141 145 156 168 184 202 211 217 223 225 228 231 236 241 244 246 248 250 252 253 253 254 255 257 260 262 263 264 264 263 262 261 261 263 263 263 262 261 258 254 251 247 243 240 238 237 238 239 241 244 246 247 247 248 250 251 253 253 254 255 256 258 260 261 261 262 263 262 259 253 248 245 241 237
87 88 90 93 96 96 88 95 107 111 107 106 108 113 119 123 140 162 178 201 210 215 220 229 236 240 245 248 251 252 254 255 256 257 258 260 261 261 262 262 263 263 263 263 262 262 261 261 259 257 254 252 249 246 243 238 236 238 239 240 240 242 244 246 248 250 250 250 252 252 252 254 255 257 257 258 260 260 259 258 254 249 246 243 239
84 83 83 83 80 75 71 75 79 75 69 65 65 77 94 108 112 111 102 94 108 189 222 229 236 238 243 249 253 256 259 261 260 258 255 253 252 255 258 259 261 263 263 263 261 260 260 260 259 258 256 253 249 246 244 242 240 239 237 237 238 240 243 245 246 247 249 250 251 250 251 253 254 255 255 255 257 258 259 258 256 251 247 244 241
85 83 82 81 78 76 74 76 76 74 72 67 63 62 65 86 116 147 169 189 207 244 245 234 232 227 234 242 247 251 253 255 253 251 247 244 243 246 251 254 257 260 262 263 262 262 262 261 261 260 258 253 249 247 246 244 242 240 234 230 233 236 240 244 246 246 247 248 249 249 250 252 253 254 253 254 255 257 258 258 256 251 247 245 241
81 79 79 77 77 76 75 75 75 75 74 71 70 69 66 67 69 78 93 96 74 58 64 51 358 212 221 233 242 243 242 242 240 238 235 235 235 238 243 247 251 255 258 260 261 263 263 263 263 261 259 257 254 252 249 246 245 244 240 234 230 233 240 245 247 246 245 246 248 248 249 251 252 253 253 252 251 252 253 253 253 250 247 245 242
78 76 76 76 75 75 74 74 73 73 73 72 71 70 70 69 69 70 67 61 54 50 48 34 15 12 7 343 304 275 262 253 241 233 228 226 228 230 234 239 245 249 254 258 260 262 262 262 263 261 260 260 259 255 251 250 249 246 243 241 241 244 248 248 244 242 243 244 245 246 247 248 250 251 251 250 248 249 249 248 248 246 244 245 244
78 76 76 74 74 73 72 71 71 71 71 70 70 68 68 68 67 68 66 61 55 50 48 39 26 19 14 8 3 359 342 319 297 270 245 232 227 225 228 234 239 244 249 254 257 260 261 262 263 263 262 260 259 256 254 253 251 248 246 245 245 245 248 249 245 242 242 242 243 244 245 246 248 249 249 248 247 247 247 246 244 243 243 245 246
80 78 75 73 71 70 68 68 68 69 68 67 67 65 64 63 62 62 62 61 57 52 48 40 33 28 22 18 15 16 16 7 352 332 306 275 251 236 232 232 234 239 245 251 255 257 259 260 261 263 263 261 258 257 258 256 253 253 252 250 247 245 245 247 248 248 248 249 249 246 245 245 246 246 247 246 246 246 245 244 243 243 244 245 246
78 75 73 71 69 66 64 64 63 64 64 63 62 63 63 61 59 57 55 56 54 51 45 37 32 26 20 19 14 11 12 14 12 359 346 333 309 280 260 249 242 239 241 248 252 255 257 258 259 261 262 262 260 259 259 258 256 257 257 254 252 249 245 244 245 247 249 250 251 250 249 246 244 246 247 247 247 247 245 241 240 242 243 244 245
75 72 69 66 62 59 56 55 55 56 57 56 56 58 59 59 58 57 54 54 53 50 46 39 35 30 25 21 15 8 1 359 3 1 350 343 336 324 305 285 270 257 249 248 249 251 254 256 258 260 262 262 262 261 260 260 260 259 258 257 255 252 248 244 242 243 245 248 249 251 253 251 251 254 255 253 252 250 246 241 240 240 241 243 246
74 68 64 59 55 54 49 45 47 47 46 46 45 46 49 51 53 54 52 53 52 49 47 43 38 35 31 28 23 16 3 350 348 349 346 343 340 334 327 315 301 285 271 261 254 251 250 252 255 258 260 261 261 261 261 261 261 260 258 257 256 255 253 251 249 248 248 248 249 251 253 255 257 259 259 258 255 250 246 243 242 241 241 243 245
Height
1543 1543 1544 1545 1547 1547 1549 1550 1551 1551 1552 1553 1554 1555 1555 1556 1557 1557 1558 1559 1559 1560 1561 1562 1563 1563 1564 1565 1565 1565 1566 1566 1567 1567 1567 1568 1568 1568 1568 1569 1569 1570 1570 1570 1571 1571 1572 1572 1572 1572 1572 1572 1572 1573 1573 1573 1573 1573 1573 1574 1574 1574 1574 1574 1574 1574 1574 1575 1575 1575 1575 1575 1575 1575 1575 1575 1575 1576 1575 1576 1576 1576 1576 1576 1576
1542 1543 1544 1545 1546 1547 1548 1549 1550 1551 1552 1552 1553 1554 1555 1555 1556 1557 1557 1558 1559 1560 1561 1561 1562 1563 1563 1564 1564 1565 1566 1566 1567 1567 1568 1568 1568 1568 1569 1569 1569 1570 1570 1570 1571 1571 1572 1572 1572 1572 1572 1572 1572 1573 1573 1573 1573 1573 1573 1574 1574 1574 1574 1574 1574 1574 1574 1575 1575 1575 1575 1575 1576 1575 1575 1576 1576 1576 1576 1576 1576 1576 1576 1576 1576
1541 1542 1543 1544 1545 1546 1547 1548 1549 1550 1551 1552 1553 1553 1554 1555 1555 1556 1557 1558 1559 1559 1560 1561 1561 1562 1563 1563 1564 1564 1565 1566 1566 1567 1567 1568 1568 1569 1569 1569 1570 1570 1570 1571 1571 1571 1572 1572 1572 1572 1572 1572 1572 1573 1573 1573 1573 1573 1573 1574 1574 1574 1575 1574 1574 1574 1574 1575 1575 1575 1575 1575 1576 1576 1576 1576 1576 1576 1576 1576 1576 1577 1577 1577 1576
1541 1542 1542 1543 1544 1546 1547 1547 1548 1549 1550 1551 1552 1553 1554 1554 1555 1556 1556 1557 1558 1559 1559 1560 1561 1561 1562 1563 1564 1564 1565 1565 1566 1566 1567 1567 1568 1568 1569 1569 1570 1570 1570 1571 1571 1571 1572 1572 1572 1572 1572 1572 1572 1572 1573 1573 1573 1573 1573 1574 1574 1575 1575 1575 1575 1574 1574 1574 1575 1575 1575 1575 1575 1576 1576 1576 1576 1576 1576 1576 1576 1577 1577 1577 1577
1540 1541 1542 1542 1543 1545 1546 1547 1548 1548 1549 1550 1551 1552 1553 1554 1554 1555 1556 1557 1557 1558 1559 1560 1560 1561 1562 1562 1563 1564 1564 1564 1565 1565 1566 1567 1567 1568 1568 1569 1569 1570 1570 1571 1571 1571 1571 1571 1571 1572 1572 1572 1572 1572 1572 1573 1573 1573 1573 1573 1574 1574 1575 1575 1575 1574 1574 1574 1574 1574 1574 1575 1575 1575 1576 1576 1576 1576 1576 1576 1577 1577 1577 1577 1577
1540 1541 1541 1542 1543 1543 1545 1546 1547 1548 1549 1549 1550 1551 1552 1553 1554 1555 1555 1556 1557 1558 1558 1559 1560 1561 1561 1562 1563 1563 1564 1564 1564 1564 1565 1565 1566 1567 1568 1568 1569 1569 1570 1570 1571 1571 1570 1571 1571 1571 1571 1572 1572 1572 1572 1572 1572 1572 1573 1573 1573 1574 1574 1574 1574 1574 1574 1574 1574 1574 1574 1574 1575 1575 1575 1576 1575 1576 1576 1576 1577 1577 1577 1577 1577
1539 1540 1541 1541 1542 1542 1544 1545 1546 1547 1548 1549 1550 1551 1551 1552 1553 1554 1555 1556 1556 1557 1558 1559 1560 1560 1561 1562 1562 1563 1563 1563 1564 1564 1564 1565 1565 1566 1567 1567 1568 1569 1569 1570 1570 1570 1570 1570 1571 1571 1571 1571 1571 1571 1571 1572 1572 1572 1572 1572 1573 1573 1573 1574 1574 1574 1574 1573 1573 1573 1574 1573 1574 1575 1575 1575 1575 1575 1575 1576 1576 1576 1577 1577 1577
1539 1539 1540 1540 1541 1542 1543 1544 1545 1546 1547 1548 1549 1550 1551 1552 1552 1553 1554 1555 1556 1556 1557 1558 1559 1560 1560 1561 1561 1562 1562 1562 1563 1563 1564 1564 1564 1565 1566 1567 1567 1568 1568 1569 1569 1569 1569 1569 1570 1570 1570 1570 1570 1571 1571 1571 1571 1571 1572 1572 1572 1572 1572 1573 1573 1573 1574 1574 1573 1572 1573 1573 1574 1575 1575 1575 1575 1575 1575 1575 1576 1576 1576 1576 1576
1538 1538 1539 1540 1540 1541 1542 1543 1544 1545 1546 1547 1548 1549 1550 1551 1551 1552 1553 1554 1555 1556 1557 1557 1558 1559 1560 1560 1561 1561 1561 1562 1562 1562 1563 1564 1564 1564 1565 1566 1567 1567 1568 1568 1568 1568 1568 1568 1569 1570 1570 1570 1570 1570 1570 1570 1570 1570 1571 1571 1571 1571 1571 1572 1572 1572 1573 1573 1572 1571 1571 1572 1573 1574 1574 1574 1575 1575 1575 1575 1575 1575 1576 1576 1576
1538 1538 1538 1539 1539 1540 1541 1542 1543 1544 1545 1546 1547 1548 1549 1550 1551 1551 1552 1553 1554 1555 1556 1556 1557 1558 1559 1559 1560 1560 1561 1561 1561 1562 1562 1563 1564 1564 1564 1565 1566 1566 1567 1567 1567 1567 1567 1567 1568 1568 1569 1569 1569 1569 1569 1569 1569 1569 1569 1570 1570 1570 1570 1571 1571 1572 1572 1572 1572 1571 1571 1571 1572 1573 1574 1574 1574 1574 1575 1575 1574 1575 1575 1575 1575
1537 1538 1538 1538 1539 1540 1540 1541 1542 1543 1544 1545 1546 1547 1548 1548 1549 1550 1551 1552 1552 1553 1554 1555 1556 1557 1557 1558 1559 1559 1560 1560 1561 1561 1562 1563 1563 1564 1564 1565 1565 1566 1566 1566 1566 1566 1566 1566 1567 1567 1568 1568 1568 1568 1568 1568 1568 1568 1568 1569 1569 1569 1570 1570 1570 1571 1571 1571 1571 1571 1571 1571 1571 1572 1573 1573 1573 1574 1574 1574 1574 1574 1574 1574 1574
1536 1537 1537 1538 1538 1539 1540 1540 1541 1542 1543 1544 1545 1545 1546 1547 1548 1549 1550 1550 1551 1552 1553 1554 1555 1555 1556 1557 1557 1558 1559 1559 1560 1560 1561 1562 1562 1563 1564 1564 1564 1565 1565 1565 1565 1565 1565 1565 1566 1566 1566 1567 1567 1567 1567 1567 1567 1568 1568 1568 1569 1569 1569 1569 1570 1570 1570 1570 1571 1570 1570 1571 1571 1571 1572 1572 1572 1573 1573 1574 1574 1574 1574 1574 1574
1535 1536 1537 1537 1538 1538 1539 1539 1540 1541 1542 1543 1543 1544 1545 1546 1547 1548 1549 1549 1550 1551 1552 1552 1553 1554 1555 1555 1556 1557 1558 1558 1558 1559 1560 1561 1561 1562 1562 1563 1563 1564 1564 1564 1565 1564 1565 1564 1565 1565 1566 1566 1566 1567 1567 1567 1567 1567 1568 1568 1568 1569 1569 1569 1569 1569 1569 1570 1570 1570 1570 1570 1570 1571 1571 1571 1572 1572 1572 1573 1573 1573 1573 1573 1573
1535 1535 1536 1536 1537 1538 1538 1539 1539 1540 1540 1541 1542 1543 1544 1544 1545 1546 1547 1548 1549 1550 1550 1551 1552 1553 1553 1554 1555 1556 1556 1557 1557 1558 1559 1560 1560 1561 1562 1562 1562 1562 1562 1563 1563 1563 1564 1563 1564 1564 1565 1565 1566 1566 1566 1567 1567 1567 1568 1568 1568 1568 1568 1569 1568 1568 1569 1570 1570 1570 1570 1570 1570 1570 1570 1570 1571 1571 1571 1572 1572 1572 1572 1572 1572
1534 1534 1535 1535 1536 1537 1537 1538 1538 1539 1539 1540 1541 1542 1542 1543 1544 1545 1546 1546 1547 1548 1549 1550 1551 1552 1552 1553 1554 1554 1555 1555 1556 1557 1558 1559 1560 1560 1561 1561 1561 1561 1561 1562 1562 1562 1563 1563 1563 1564 1564 1565 1565 1565 1566 1566 1567 1567 1567 1568 1568 1568 1568 1568 1568 1568 1569 1569 1569 1569 1569 1569 1569 1569 1569 1569 1570 1570 1570 1570 1570 1571 1571 1571 1571
1533 1534 1534 1534 1535 1536 1536 1537 1537 1537 1538 1539 1539 1540 1541 1542 1543 1543 1544 1545 1546 1547 1548 1549 1550 1550 1551 1552 1553 1553 1554 1554 1555 1556 1557 1558 1559 1560 1560 1560 1561 1561 1561 1561 1561 1561 1562 1562 1563 1563 1564 1564 1565 1565 1565 1566 1566 1567 1567 1567 1567 1567 1568 1567 1567 1567 1568 1569 1569 1569 1569 1569 1569 1569 1568 1568 1569 1569 1569 1569 1569 1569 1569 1569 1569
1532 1533 1533 1533 1534 1534 1535 1535 1536 1536 1537 1537 1538 1539 1540 1540 1541 1542 1543 1544 1545 1545 1546 1547 1548 1549 1550 1551 1552 1553 1553 1554 1554 1555 1556 1557 1558 1558 1559 1559 1560 1560 1560 1560 1561 1561 1562 1562 1563 1563 1564 1564 1564 1565 1565 1566 1566 1566 1566 1566 1567 1567 1567 1567 1566 1567 1568 1568 1568 1568 1568 1568 1568 1568 1568 1567 1568 1568 1568 1568 1568 1568 1568 1568 1568
1531 1531 1532 1532 1532 1533 1533 1534 1534 1535 1535 1536 1536 1537 1538 1539 1540 1541 1542 1542 1543 1544 1545 1546 1547 1548 1549 1550 1551 1552 1553 1553 1554 1554 1555 1556 1557 1557 1558 1558 1558 1559 1559 1560 1560 1561 1561 1562 1562 1563 1563 1564 1564 1565 1565 1565 1566 1566 1566 1566 1566 1566 1566 1566 1566 1567 1567 1567 1567 1567 1567 1567 1567 1567 1567 1567 1567 1567 1567 1567 1567 1567 1567 1567 1567
1530 1530 1530 1530 1531 1531 1531 1532 1533 1533 1534 1534 1535 1535 1536 1537 1538 1539 1540 1541 1542 1543 1544 1545 1546 1547 1548 1549 1550 1551 1552 1553 1553 1554 1554 1555 1556 1556 1557 1557 1557 1558 1558 1559 1559 1560 1560 1561 1562 1562 1563 1563 1564 1564 1565 1565 1565 1565 1566 1566 1566 1566 1566 1566 1566 1566 1567 1566 1566 1566 1566 1566 1566 1566 1566 1566 1566 1566 1566 1566 1566 1566 1566 1566 1566
1529 1529 1528 1528 1528 1529 1529 1530 1531 1531 1532 1533 1533 1534 1535 1535 1536 1537 1538 1539 1540 1541 1542 1543 1544 1545 1546 1547 1549 1550 1551 1552 1553 1553 1553 1554 1555 1556 1556 1556 1556 1557 1557 1558 1559 1559 1560 1560 1561 1562 1562 1562 1563 1563 1564 1564 1565 1565 1565 1565 1565 1565 1565 1565 1566 1566 1566 1566 1566 1566 1566 1566 1566 1566 1565 1565 1565 1565 1565 1565 1565 1565 1565 1565 1565
1527 1527 1527 1526 1526 1527 1528 1528 1529 1529 1530 1531 1532 1532 1533 1534 1534 1535 1537 1538 1539 1540 1541 1542 1543 1544 1545 1546 1547 1548 1549 1550 1551 1551 1552 1553 1554 1555 1555 1555 1556 1556 1556 1557 1558 1559 1559 1560 1560 1561 1561 1562 1562 1563 1563 1564 1564 1564 1564 1564 1564 1565 1564 1565 1565 1565 1565 1565 1565 1565 1565 1565 1565 1565 1565 1565 1565 1564 1564 1564 1564 1564 1564 1564 1564
1525 1525 1525 1525 1524 1525 1525 1526 1527 1528 1528 1529 1530 1530 1531 1532 1533 1533 1535 1536 1537 1538 1539 1540 1541 1542 1543 1544 1545 1546 1547 1548 1549 1549 1550 1552 1553 1553 1554 1555 1555 1555 1556 1556 1557 1558 1558 1559 1560 1560 1561 1561 1562 1562 1563 1563 1563 1564 1564 1564 1564 1564 1564 1564 1564 1564 1564 1564 1564 1564 1564 1564 1564 1564 1565 1564 1564 1564 1564 1563 1563 1563 1563 1563 1563
1523 1523 1523 1523 1523 1523 1523 1524 1525 1526 1527 1527 1528 1528 1529 1530 1531 1532 1532 1534 1535 1536 1537 1538 1539 1540 1541 1542 1543 1544 1545 1546 1547 1548 1549 1550 1550 1551 1552 1553 1554 1555 1555 1556 1556 1557 1558 1558 1559 1560 1560 1561 1561 1562 1562 1562 1563 1563 1563 1563 1563 1563 1563 1563 1564 1564 1563 1563 1563 1563 1563 1563 1563 1563 1564 1564 1563 1563 1563 1563 1562 1562 1562 1562 1562
1521 1521 1522 1522 1522 1522 1522 1522 1523 1524 1525 1525 1526 1526 1527 1528 1529 1530 1531 1532 1533 1534 1535 1536 1537 1538 1539 1540 1541 1543 1544 1544 1545 1546 1547 1548 1549 1550 1551 1552 1553 1553 1554 1555 1556 1556 1557 1558 1558 1559 1559 1560 1560 1561 1562 1562 1562 1563 1563 1563 1563 1563 1563 1563 1563 1563 1563 1563 1563 1563 1563 1563 1563 1562 1562 1563 1563 1562 1562 1562 1561 1561 1561 1561 1561
1519 1519 1519 1520 1520 1521 1521 1520 1520 1521 1522 1523 1523 1524 1525 1526 1527 1528 1529 1530 1531 1531 1532 1533 1534 1536 1537 1538 1539 1540 1542 1543 1544 1544 1545 1546 1547 1548 1549 1550 1551 1552 1553 1554 1554 1555 1556 1557 1558 1558 1559 1559 1560 1560 1561 1561 1562 1562 1562 1562 1562 1562 1562 1563 1562 1562 1562 1562 1562 1562 1562 1562 1562 1562 1561 1561 1561 1561 1561 1561 1560 1560 1560 1560 1560
1517 1517 1517 1518 1518 1519 1519 1519 1518 1518 1519 1520 1521 1522 1522 1523 1524 1526 1527 1527 1528 1529 1530 1531 1532 1533 1535 1536 1537 1538 1539 1540 1541 1542 1543 1544 1545 1546 1548 1549 1550 1551 1551 1552 1553 1554 1555 1556 1557 1558 1558 1559 1559 1559 1560 1560 1561 1561 1561 1561 1562 1562 1562 1562 1562 1562 1561 1561 1561 1561 1561 1561 1561 1561 1561 1561 1560 1560 1560 1560 1559 1559 1559 1559 1559
1516 1515 1516 1516 1516 1517 1517 1517 1517 1517 1517 1517 1519 1519 1520 1521 1522 1524 1524 1525 1526 1527 1528 1529 1530 1531 1533 1534 1535 1536 1537 1537 1539 1540 1541 1542 1544 1545 1546 1547 1548 1549 1550 1551 1552 1553 1554 1555 1556 1556 1557 1558 1558 1558 1559 1560 1560 1560 1560 1560 1561 1561 1561 1561 1561 1561 1561 1561 1561 1561 1561 1561 1560 1560 1560 1560 1559 1559 1559 1559 1559 1559 1558 1558 1558
1514 1514 1514 1514 1514 1515 1515 1515 1516 1516 1515 1515 1516 1516 1518 1518 1520 1521 1522 1523 1524 1525 1527 1528 1529 1530 1531 1532 1533 1534 1535 1535 1536 1538 1539 1541 1542 1543 1544 1545 1546 1547 1548 1549 1550 1551 1552 1553 1554 1555 1555 1556 1556 1557 1558 1558 1559 1559 1559 1559 1560 1560 1560 1560 1560 1560 1560 1560 1560 1560 1560 1560 1560 1559 1559 1559 1559 1558 1558 1558 1558 1558 1558 1558 1558
1512 1512 1512 1512 1512 1513 1513 1514 1514 1515 1514 1514 1514 1514 1515 1516 1517 1518 1520 1521 1522 1524 1526 1527 1528 1529 1530 1531 1532 1533 1533 1534 1535 1536 1538 1539 1540 1541 1542 1543 1545 1545 1546 1547 1548 1549 1550 1552 1552 1553 1553 1554 1555 1556 1556 1557 1557 1557 1558 1558 1558 1559 1559 1559 1559 1560 1559 1559 1559 1559 1559 1559 1559 1559 1558 1558 1558 1558 1557 1558 1558 1558 1558 1558 1557
1511 1510 1510 1510 1510 1511 1511 1512 1512 1513 1513 1513 1513 1513 1514 1514 1515 1516 1517 1519 1520 1522 1524 1525 1526 1527 1528 1529 1530 1532 1532 1533 1533 1535 1536 1537 1538 1539 1540 1541 1542 1543 1544 1545 1546 1547 1548 1550 1550 1551 1551 1552 1553 1554 1554 1555 1555 1556 1556 1557 1557 1558 1558 1558 1558 1558 1558 1558 1558 1558 1558 1558 1558 1558 1557 1557 1557 1557 1557 1557 1557 1557 1558 1558 1557
1508 1508 1508 1508 1508 1509 1509 1510 1510 1511 1511 1511 1512 1512 1513 1513 1514 1515 1516 1517 1519 1520 1521 1523 1524 1525 1527 1528 1529 1530 1531 1531 1532 1533 1534 1535 1536 1537 1538 1539 1540 1541 1542 1543 1544 1545 1547 1548 1548 1549 1550 1551 1552 1552 1552 1553 1554 1554 1555 1555 1555 1556 1556 1557 1557 1557 1557 1557 1557 1557 1557 1557 1557 1557 1556 1556 1556 1556 1556 1556 1556 1556 1557 1557 1557
1506 1506 1506 1506 1507 1507 1508 1508 1508 1509 1509 1510 1510 1511 1512 1512 1513 1514 1515 1516 1517 1518 1519 1521 1522 1523 1525 1526 1527 1528 1529 1530 1530 1531 1532 1533 1534 1535 1536 1537 1538 1540 1541 1541 1542 1544 1545 1546 1547 1547 1548 1549 1549 1550 1550 1551 1552 1552 1553 1553 1554 1554 1555 1555 1555 1555 1556 1555 1556 1556 1556 1556 1556 1556 1555 1555 1555 1555 1555 1555 1555 1555 1556 1557 1557
1505 1505 1505 1505 1505 1505 1506 1506 1506 1507 1507 1508 1508 1509 1510 1511 1512 1513 1514 1515 1516 1517 1518 1519 1520 1522 1523 1524 1525 1526 1527 1528 1528 1529 1530 1531 1532 1533 1534 1536 1537 1538 1539 1540 1540 1542 1543 1544 1544 1545 1546 1546 1547 1547 1548 1549 1550 1550 1551 1551 1552 1553 1553 1553 1554 1554 1554 1554 1554 1554 1554 1555 1555 1554 1554 1554 1554 1554 1554 1554 1554 1554 1554 1555 1556
1504 1504 1504 1503 1503 1504 1505 1505 1505 1505 1505 1506 1507 1507 1508 1509 1510 1511 1513 1514 1515 1516 1517 1518 1519 1520 1521 1522 1524 1525 1526 1527 1527 1528 1529 1530 1530 1531 1532 1534 1535 1536 1537 1538 1538 1540 1541 1541 1542 1543 1544 1544 1545 1545 1546 1547 1548 1548 1549 1550 1550 1551 1552 1552 1552 1552 1552 1553 1553 1553 1553 1553 1553 1553 1553 1553 1553 1553 1553 1553 1552 1552 1552 1553 1554
1503 1502 1502 1502 1501 1502 1503 1503 1503 1503 1504 1504 1505 1506 1507 1508 1509 1510 1511 1512 1513 1515 1516 1517 1519 1519 1520 1521 1522 1523 1525 1525 1526 1526 1527 1528 1529 1530 1531 1532 1533 1534 1535 1535 1536 1537 1538 1539 1540 1541 1542 1542 1543 1544 1545 1545 1546 1547 1547 1548 1548 1549 1550 1550 1550 1550 1551 1551 1551 1552 1552 1552 1552 1552 1552 1552 1552 1552 1551 1551 1551 1551 1552 1552 1552
1501 1501 1500 1500 1500 1500 1501 1502 1502 1502 1503 1503 1504 1504 1506 1506 1508 1508 1509 1511 1512 1513 1515 1516 1517 1518 1519 1520 1521 1522 1523 1524 1524 1525 1526 1527 1528 1529 1530 1531 1532 1532 1532 1533 1534 1535 1535 1536 1537 1539 1540 1540 1541 1542 1543 1544 1544 1545 1546 1546 1546 1547 1547 1548 1548 1549 1549 1549 1549 1550 1550 1550 1550 1550 1550 1550 1550 1550 1550 1549 1549 1549 1550 1550 1550
1500 1499 1499 1499 1499 1499 1500 1500 1501 1501 1501 1502 1502 1503 1504 1505 1506 1507 1508 1509 1510 1511 1513 1514 1515 1517 1517 1518 1519 1520 1521 1522 1523 1523 1524 1525 1526 1527 1528 1529 1530 1530 1531 1531 1531 1532 1533 1534 1534 1536 1537 1538 1539 1540 1541 1542 1543 1543 1544 1544 1544 1545 1545 1546 1546 1547 1547 1547 1547 1547 1548 1548 1548 1548 1548 1548 1548 1548 1548 1548 1548 1548 1548 1548 1549
1499 1499 1498 1498 1498 1498 1498 1498 1499 1499 1500 1501 1501 1502 1503 1504 1504 1505 1506 1507 1509 1510 1511 1512 1513 1514 1515 1517 1518 1519 1520 1520 1521 1522 1522 1523 1524 1525 1526 1527 1527 1528 1528 1529 1529 1530 1531 1531 1532 1533 1534 1535 1536 1537 1538 1540 1541 1541 1541 1542 1542 1542 1543 1544 1544 1545 1545 1545 1545 1545 1545 1545 1546 1546 1546 1546 1546 1546 1546 1546 1546 1546 1546 1547 1547
1499 1498 1498 1497 1497 1497 1497 1497 1497 1498 1499 1500 1500 1501 1502 1503 1503 1504 1505 1506 1507 1508 1509 1510 1511 1512 1513 1515 1516 1517 1518 1519 1519 1520 1521 1521 1522 1523 1524 1524 1525 1526 1526 1527 1527 1528 1529 1529 1530 1530 1531 1532 1533 1534 1535 1537 1538 1538 1538 1539 1539 1539 1540 1541 1541 1542 1542 1542 1543 1543 1543 1543 1543 1544 1544 1544 1544 1544 1544 1544 1544 1544 1545 1545 1545
1498 1498 1498 1497 1497 1497 1496 1496 1497 1497 1497 1498 1499 1500 1501 1502 1502 1503 1504 1505 1506 1507 1508 1509 1509 1510 1511 1512 1513 1514 1516 1517 1517 1518 1519 1519 1520 1520 1521 1522 1522 1523 1523 1524 1525 1526 1527 1528 1528 1529 1529 1530 1530 1531 1532 1533 1533 1534 1534 1535 1535 1536 1537 1538 1538 1539 1539 1539 1539 1540 1541 1541 1541 1541 1541 1542 1542 1542 1542 1542 1542 1542 1543 1543 1543
1497 1498 1498 1498 1498 1498 1498 1497 1497 1497 1497 1497 1498 1499 1500 1500 1501 1502 1503 1504 1505 1506 1507 1507 1508 1508 1509 1510 1511 1512 1513 1514 1515 1516 1517 1517 1517 1518 1518 1519 1519 1520 1521 1521 1523 1524 1524 1525 1526 1526 1527 1527 1527 1528 1528 1529 1530 1529 1530 1531 1532 1533 1533 1533 1534 1536 1536 1535 1536 1537 1538 1538 1538 1538 1539 1539 1539 1539 1539 1539 1539 1540 1540 1541 1541
1498 1498 1498 1499 1499 1499 1499 1498 1498 1498 1498 1498 1498 1499 1500 1500 1501 1502 1502 1503 1504 1505 1506 1506 1507 1507 1508 1509 1509 1510 1511 1512 1513 1514 1514 1514 1514 1515 1516 1517 1517 1518 1518 1519 1520 1521 1522 1523 1523 1523 1524 1524 1524 1525 1525 1525 1525 1525 1527 1528 1528 1528 1528 1529 1531 1531 1531 1531 1533 1534 1534 1535 1535 1535 1536 1536 1536 1537 1537 1537 1537 1538 1538 1538 1538
1499 1499 1499 1499 1500 1501 1500 1500 1499 1499 1499 1499 1499 1499 1500 1501 1502 1502 1503 1503 1504 1505 1505 1506 1506 1507 1507 1508 1508 1509 1509 1510 1511 1511 1511 1511 1512 1512 1513 1514 1514 1515 1516 1517 1517 1518 1519 1520 1520 1520 1521 1521 1521 1521 1521 1521 1522 1523 1526 1525 1524 1525 1524 1524 1525 1526 1526 1527 1529 1530 1530 1531 1532 1532 1532 1533 1533 1533 1534 1534 1534 1535 1535 1536 1536
1501 1501 1501 1501 1501 1502 1502 1502 1501 1500 1499 1499 1499 1500 1500 1501 1502 1503 1503 1503 1503 1504 1504 1505 1505 1506 1506 1506 1507 1507 1507 1507 1508 1508 1508 1508 1509 1510 1510 1511 1512 1512 1513 1514 1514 1515 1516 1517 1517 1518 1518 1518 1518 1518 1518 1518 1519 1520 1521 1521 1522 1523 1520 1519 1520 1521 1522 1523 1524 1525 1526 1527 1528 1528 1529 1529 1530 1530 1530 1531 1531 1532 1533 1533 1534
1504 1503 1503 1503 1503 1504 1505 1505 1503 1502 1501 1500 1500 1500 1501 1502 1503 1503 1503 1503 1503 1503 1504 1504 1505 1505 1506 1506 1505 1505 1505 1505 1505 1505 1505 1506 1506 1507 1508 1508 1509 1509 1510 1510 1511 1513 1513 1514 1515 1515 1515 1515 1515 1516 1516 1516 1515 1516 1517 1517 1518 1517 1514 1515 1518 1518 1518 1519 1520 1521 1522 1523 1523 1524 1525 1526 1526 1526 1526 1527 1527 1529 1529 1530 1531
1506 1507 1507 1506 1506 1507 1508 1508 1506 1504 1503 1501 1501 1501 1502 1503 1504 1504 1504 1504 1503 1503 1503 1503 1504 1504 1505 1505 1505 1505 1504 1504 1504 1504 1503 1503 1504 1504 1505 1505 1506 1507 1507 1508 1508 1510 1510 1511 1512 1512 1512 1513 1514 1513 1513 1513 1513 1513 1513 1513 1514 1512 1511 1514 1515 1514 1514 1515 1516 1517 1517 1518 1519 1520 1521 1522 1523 1523 1523 1523 1524 1525 1526 1527 1528
1509 1509 1510 1509 1508 1509 1510 1511 1509 1507 1505 1504 1503 1502 1502 1503 1504 1505 1505 1504 1503 1503 1503 1503 1503 1504 1504 1504 1504 1504 1504 1504 1503 1503 1503 1502 1502 1502 1502 1502 1503 1504 1504 1505 1505 1506 1507 1508 1509 1509 1509 1510 1511 1509 1509 1511 1511 1509 1509 1510 1510 1510 1510 1511 1511 1511 1511 1511 1511 1512 1512 1514 1514 1515 1516 1518 1518 1519 1520 1520 1521 1521 1521 1523 1524
1511 1511 1510 1511 1510 1510 1512 1513 1512 1510 1508 1506 1505 1503 1503 1504 1505 1506 1506 1505 1504 1503 1503 1503 1503 1503 1503 1503 1503 1504 1504 1504 1503 1503 1503 1502 1502 1501 1501 1500 1500 1501 1502 1502 1503 1504 1504 1505 1506 1506 1506 1507 1507 1507 1507 1508 1507 1506 1507 1507 1507 1507 1508 1508 1508 1509 1508 1507 1508 1508 1508 1510 1510 1510 1512 1513 1514 1515 1516 1517 1517 1518 1518 1519 1520
1513 1512 1511 1512 1512 1511 1513 1514 1513 1511 1509 1508 1507 1505 1504 1505 1506 1507 1507 1506 1505 1504 1504 1504 1504 1503 1503 1503 1502 1502 1502 1503 1503 1503 1502 1502 1501 1501 1500 1500 1499 1499 1499 1499 1500 1501 1501 1502 1502 1503 1503 1504 1504 1504 1504 1505 1504 1504 1505 1505 1504 1505 1505 1505 1505 1505 1505 1505 1504 1504 1505 1506 1505 1506 1508 1509 1510 1511 1512 1513 1514 1514 1515 1516 1517
1515 1513 1513 1513 1513 1513 1515 1515 1513 1511 1509 1509 1508 1507 1506 1506 1507 1508 1509 1508 1506 1505 1504 1504 1504 1504 1503 1503 1502 1501 1501 1501 1501 1501 1501 1501 1500 1500 1500 1499 1499 1498 1498 1497 1497 1498 1498 1499 1499 1500 1500 1500 1501 1501 1501 1501 1502 1502 1502 1502 1502 1502 1501 1501 1501 1502 1502 1502 1501 1501 1502 1503 1502 1503 1505 1506 1506 1507 1508 1509 1510 1510 1511 1513 1514
1516 1515 1513 1513 1514 1515 1516 1515 1513 1511 1510 1509 1509 1508 1507 1506 1507 1508 1509 1508 1506 1505 1505 1505 1504 1504 1503 1503 1502 1502 1501 1500 1500 1499 1499 1499 1499 1498 1498 1498 1497 1497 1497 1496 1496 1495 1495 1496 1496 1496 1496 1496 1497 1497 1497 1498 1498 1498 1499 1498 1498 1498 1498 1497 1498 1499 1500 1499 1498 1498 1499 1500 1499 1500 1502 1503 1503 1504 1504 1505 1506 1507 1508 1509 1510